DELTA 1 DEB, 10708

Orbit data source: Space-Track

DELTA 1 DEB, 10708 is space debris in SSO originally from a launch on Thu, 29 Jul 1976 UTC launched from the Air Force Western Test Range (AFWTR). Debris objects in space refer to the collection of defunct objects orbiting the Earth. Examples of debris include non-operational satellites, rocket bodies, and fragments generated from explosions, collisions, or faulty payload assembly.

Loading next visibility...
Identifier
10708, 1976-077AD
Orbit
SSO
Country
Flag of USUS
Related business
Manufacturer
Unknown
Mission
Spacecraft
Bus & Motor
Unknown
Mass
Unknown
Launch date (UTC)
1976-07-29 (50 years ago)
Launch vehicle
Unknown
Launch site
Air Force Western Test Range (AFWTR)
Object type
Payload
Rocket body
Debris
Shape & HBR
Unknown shape, 0.1 m
Radar Cross Section
Small (<0.1 m²)

Expand to show TLE details & history
Last TLE update: 10 hours ago

TLE from 10 hours ago
0 DELTA 1 DEB
1 10708U 76077AD  26037.97722656  .00000424  00000-0  24470-2 0  9994
2 10708 101.2108  49.1715 0163757 261.2396 154.8345 12.63343193271405
Epoch: 2026-02-06T23:27Z
TLE epoch observation values (Epoch: 2026-02-06T23:27:12.374Z)
Latitude
55.31152°
Longitude
-96.29455°
Altitude
1,533.976 km
Speed
7.051 km/s
True Right ascension
02h 10m 27s
True Declination
55° 09' 58"
Sunlit
Object was in daylight at epoch
Visualization orbit readout
Latitude
Unknown
Longitude
Unknown
Altitude
Unknown
Speed
Unknown
Apparent Right ascension
Unknown
Apparent Declination
Unknown
Sunlit
N/A
Visualization observer readout
Local Sidereal Time
11:29:48
Azimuth
Unknown
Elevation
Unknown
Doppler factor
Unknown
Orbital elements
Apogee altitude
1,534.155 km
Perigee altitude
1,279.191 km
Semi-major axis
7,784.81 km
Eccentricity
0.01638
Inclination
101.2108°
RAAN
49.1715°
Arg. of periapsis
261.2396°
True anomaly
155.61791°
Mean anomaly
154.8345°
Eccentric anomaly
155.22764°
Mean motion
3.15988 °/min
Orbital period
113.93 mins
BSTAR
0.002447
Loading maneuver chart data...
Computing Atmospheric mass density...
Loading historical data...
Loading historical data...
Loading historical data...
Loading historical data...
Loading historical data...
Loading historical data...
Loading historical data...

Documentation

Showing up to 5 results
|